Weather History for Lee's Summit, MO

Change the Weather History Date:

Thursday, March 7, 2013

  Actual Average (KMKC) Record (KMKC)
Temperature  
Mean Temperature 32 °F -  
Max Temperature 44 °F 47 °F 73 °F (2009)
Min Temperature 21 °F 28 °F 15 °F (2008)
Degree Days  
Heating Degree Days 32    
Moisture  
Dew Point 23 °F    
Average Humidity 66    
Maximum Humidity 81    
Minimum Humidity 51    
Precipitation  
Precipitation 0.00 in - - ()
Sea Level Pressure  
Sea Level Pressure 30.27 in    
Wind  
Wind Speed 8 mph (East)    
Max Wind Speed 13 mph    
Max Gust Speed -    
Visibility 10 miles    
Events      
Averages and records for this station are not official NWS values.
T = Trace of Precipitation, MM = Missing Value Source: NWS Daily Summary

Daily Weather History Graph

Daily Weather History Graph

Search for Another Location

Airport:

Trip Planner

Search our weather history database for the weather conditions in past years. The results will help you decide how hot, cold, wet, or windy it might be!

Date:

Astronomy

Mar. 07, 2013 Rise Set
Actual Time 6:40 AM CST 6:16 PM CST
Civil Twilight 6:14 AM CST 6:43 PM CST
Nautical Twilight 5:43 AM CST 7:14 PM CST
Astronomical Twilight 5:12 AM CST 7:45 PM CST
Moon 3:39 AM CST (3/7) 2:07 PM CST (3/7)
Length of Visible Light 12h 29m
Length of Day
11h 36m
Waning Crescent, 20% of the Moon is Illuminated
Mar 7
Waning Crescent
Mar 11
New
Mar 19
First Quarter
Mar 27
Full
Apr 2
Last Quarter

Hourly Weather History & Observations

Time (CST) Temp. Windchill Dew Point Humidity Pressure Visibility Wind Dir Wind Speed Gust Speed Precip Events Conditions
12:53 AM 21.9 °F 13.4 °F 16.0 °F 78% 30.32 in 10.0 mi East 6.9 mph - N/A   Clear
1:53 AM 23.0 °F 15.8 °F 17.1 °F 78% 30.35 in 10.0 mi East 5.8 mph - N/A   Clear
2:53 AM 21.0 °F 12.4 °F 16.0 °F 81% 30.33 in 10.0 mi East 6.9 mph - N/A   Clear
3:53 AM 23.0 °F 14.7 °F 17.1 °F 78% 30.32 in 10.0 mi ESE 6.9 mph - N/A   Clear
4:53 AM 24.1 °F 15.2 °F 18.0 °F 77% 30.30 in 10.0 mi SE 8.1 mph - N/A   Clear
5:53 AM 23.0 °F 13.9 °F 17.1 °F 78% 30.32 in 10.0 mi ESE 8.1 mph - N/A   Clear
6:53 AM 24.1 °F 15.2 °F 18.0 °F 77% 30.31 in 10.0 mi ESE 8.1 mph - N/A   Clear
7:53 AM 26.1 °F 16.8 °F 19.0 °F 75% 30.32 in 10.0 mi ESE 9.2 mph - N/A   Clear
8:53 AM 30.0 °F 20.0 °F 19.9 °F 66% 30.32 in 10.0 mi ESE 12.7 mph - N/A   Clear
9:53 AM 33.1 °F 25.5 °F 21.9 °F 64% 30.32 in 10.0 mi ESE 9.2 mph - N/A   Clear
10:53 AM 36.0 °F 29.6 °F 24.1 °F 62% 30.30 in 10.0 mi ESE 8.1 mph - N/A   Clear
11:53 AM 39.0 °F 33.4 °F 24.1 °F 55% 30.30 in 10.0 mi SE 8.1 mph - N/A   Clear
12:53 PM 39.9 °F 33.4 °F 25.0 °F 55% 30.27 in 10.0 mi ESE 10.4 mph - N/A   Clear
1:53 PM 42.1 °F 35.7 °F 25.0 °F 51% 30.23 in 10.0 mi ESE 11.5 mph - N/A   Clear
2:53 PM 44.1 °F 39.0 °F 27.0 °F 51% 30.22 in 10.0 mi ESE 9.2 mph - N/A   Clear
3:53 PM 44.1 °F 38.1 °F 28.0 °F 53% 30.20 in 10.0 mi ESE 11.5 mph - N/A   Clear
4:53 PM 44.1 °F 38.6 °F 27.0 °F 51% 30.18 in 10.0 mi ENE 10.4 mph - N/A   Clear
5:53 PM 41.0 °F 33.9 °F 27.0 °F 57% 30.19 in 10.0 mi ENE 12.7 mph - N/A   Clear
6:53 PM 39.0 °F 31.8 °F 27.0 °F 62% 30.20 in 10.0 mi ENE 11.5 mph - N/A   Clear
7:53 PM 39.0 °F 32.3 °F 27.0 °F 62% 30.20 in 10.0 mi East 10.4 mph - N/A   Clear
8:53 PM 37.9 °F 31.5 °F 27.0 °F 65% 30.22 in 10.0 mi East 9.2 mph - N/A   Clear
9:53 PM 37.0 °F 30.4 °F 27.0 °F 67% 30.22 in 10.0 mi East 9.2 mph - N/A   Clear
10:53 PM 37.0 °F 29.8 °F 27.0 °F 67% 30.22 in 10.0 mi East 10.4 mph - N/A   Clear